TimeEST,TemperatureF,Dew PointF,Humidity,Sea Level PressureIn,VisibilityMPH,Wind Direction,Wind SpeedMPH,Gust SpeedMPH,PrecipitationIn,Events,Conditions,WindDirDegrees,DateUTC
12:54 AM,19.9,5.0,52,30.32,10.0,WNW,12.7,19.6,N/A,,Clear,290,2013-02-02 05:54:00
1:54 AM,19.0,5.0,54,30.34,10.0,West,8.1,-,N/A,,Clear,280,2013-02-02 06:54:00
2:54 AM,18.0,5.0,57,30.35,10.0,West,9.2,-,N/A,,Clear,280,2013-02-02 07:54:00
3:54 AM,17.1,3.9,56,30.33,10.0,WNW,5.8,-,N/A,,Clear,290,2013-02-02 08:54:00
4:54 AM,14.0,3.9,64,30.34,10.0,WNW,3.5,-,N/A,,Clear,290,2013-02-02 09:54:00
5:54 AM,12.0,3.9,70,30.34,10.0,West,3.5,-,N/A,,Clear,280,2013-02-02 10:54:00
6:54 AM,8.1,1.9,76,30.36,10.0,Calm,Calm,-,N/A,,Clear,0,2013-02-02 11:54:00
7:54 AM,10.0,5.0,80,30.36,10.0,Calm,Calm,-,N/A,,Clear,0,2013-02-02 12:54:00
8:54 AM,19.0,6.1,57,30.36,10.0,West,4.6,-,N/A,,Clear,260,2013-02-02 13:54:00
9:54 AM,21.9,8.1,55,30.34,10.0,West,8.1,-,N/A,,Clear,270,2013-02-02 14:54:00
10:54 AM,24.1,6.1,46,30.32,10.0,WSW,9.2,-,N/A,,Clear,250,2013-02-02 15:54:00
11:54 AM,25.0,9.0,51,30.29,10.0,WSW,11.5,16.1,N/A,,Clear,250,2013-02-02 16:54:00
12:54 PM,26.1,10.0,51,30.25,10.0,WSW,10.4,17.3,N/A,,Clear,240,2013-02-02 17:54:00
1:54 PM,28.0,8.1,43,30.22,10.0,West,13.8,-,N/A,,Clear,280,2013-02-02 18:54:00
2:54 PM,28.0,7.0,41,30.19,10.0,Variable,5.8,-,N/A,,Clear,0,2013-02-02 19:54:00
3:54 PM,28.0,9.0,45,30.17,10.0,South,3.5,-,N/A,,Clear,190,2013-02-02 20:54:00
4:54 PM,28.0,10.9,49,30.14,10.0,Calm,Calm,-,N/A,,Overcast,0,2013-02-02 21:54:00
5:54 PM,28.9,10.0,45,30.13,10.0,SW,3.5,-,N/A,,Overcast,220,2013-02-02 22:54:00
6:54 PM,28.9,12.0,49,30.12,10.0,SW,5.8,-,N/A,,Overcast,220,2013-02-02 23:54:00
7:54 PM,28.0,17.1,63,30.12,8.0,SW,6.9,-,0.00,,Overcast,220,2013-02-03 00:54:00
8:16 PM,26.6,19.4,74,30.12,2.0,Variable,4.6,-,0.00,Snow,Light Snow,0,2013-02-03 01:16:00
8:24 PM,26.6,21.2,80,30.12,1.5,SW,5.8,-,0.00,Snow,Light Snow,230,2013-02-03 01:24:00
8:54 PM,26.1,23.0,88,30.12,1.0,Variable,3.5,-,0.00,Snow,Light Snow,0,2013-02-03 01:54:00
9:35 PM,26.6,24.8,93,30.11,0.8,South,3.5,-,0.00,Snow,Light Snow,190,2013-02-03 02:35:00
9:54 PM,26.1,24.1,92,30.10,1.0,Calm,Calm,-,0.00,Snow,Light Snow,0,2013-02-03 02:54:00
10:38 PM,26.6,24.8,93,30.08,2.0,Calm,Calm,-,0.00,Snow,Light Snow,0,2013-02-03 03:38:00
10:46 PM,26.6,24.8,93,30.07,2.0,Calm,Calm,-,0.00,Snow,Light Snow,0,2013-02-03 03:46:00
10:54 PM,26.1,24.1,92,30.07,2.0,Calm,Calm,-,0.00,Snow,Light Snow,0,2013-02-03 03:54:00
11:12 PM,26.6,24.8,93,30.06,1.8,Calm,Calm,-,0.00,Snow,Light Snow,0,2013-02-03 04:12:00
11:19 PM,26.6,24.8,93,30.06,2.0,Calm,Calm,-,0.00,Snow,Light Snow,0,2013-02-03 04:19:00
11:54 PM,27.0,25.0,92,30.05,1.5,Calm,Calm,-,0.00,Snow,Light Snow,0,2013-02-03 04:54:00